Weather History for Kalamata, Greece

Change the Weather History Date:

Sunday, January 20, 2013

  Actual Average Record
Temperature  
Mean Temperature 54 °F -  
Max Temperature 64 °F 60 °F - (-1)
Min Temperature 44 °F 42 °F - (-1)
Degree Days  
Heating Degree Days 11    
Growing Degree Days 4 (Base 50)    
Moisture  
Dew Point 50 °F    
Average Humidity 83    
Maximum Humidity 94    
Minimum Humidity 68    
Precipitation  
Precipitation 0.00 in 0.14 in - ()
Sea Level Pressure  
Sea Level Pressure 29.93 in    
Wind  
Wind Speed 3 mph ()    
Max Wind Speed 13 mph    
Max Gust Speed -    
Visibility 5.8 miles    
Events      
Averages and records for this station are not official NWS values.
T = Trace of Precipitation, MM = Missing Value Source: Averaged Metar Reports

Daily Weather History Graph

Daily Weather History Graph

Search for Another Location

Airport:

Trip Planner

Search our weather history database for the weather conditions in past years. The results will help you decide how hot, cold, wet, or windy it might be!

Date:

Astronomy

Jan. 20, 2013 Rise Set
Actual Time 7:42 AM EET 5:43 PM EET
Civil Twilight 7:14 AM EET 6:11 PM EET
Nautical Twilight 6:42 AM EET 6:43 PM EET
Astronomical Twilight 6:11 AM EET 7:14 PM EET
Moon 12:33 PM EET (1/20) 1:58 AM EET (1/20)
Length of Visible Light 10h 57m
Length of Day
10h 01m
Waxing Gibbous, 63% of the Moon is Illuminated
Jan 20
Waxing Gibbous
Jan 27
Full
Feb 3
Last Quarter
Feb 10
New
Feb 17
First Quarter

Hourly Weather History & Observations

Time (EET) Temp. Dew Point Humidity Pressure Visibility Wind Dir Wind Speed Gust Speed Precip Events Conditions
12:50 AM 44.6 °F 42.8 °F 93% 29.92 in 6.2 mi Calm Calm - N/A   Mostly Cloudy
1:50 AM 46.4 °F 42.8 °F 87% 29.92 in 6.2 mi Calm Calm - N/A   Mostly Cloudy
2:50 AM 46.4 °F 44.6 °F 93% 29.92 in 6.2 mi Calm Calm - N/A   Mostly Cloudy
5:20 AM 48.2 °F 44.6 °F 87% 29.89 in 6.2 mi Calm Calm - N/A   Mostly Cloudy
5:50 AM 48.2 °F 44.6 °F 87% 29.92 in 6.2 mi Calm Calm - N/A   Mostly Cloudy
6:20 AM 46.4 °F 44.6 °F 93% 29.92 in 6.2 mi Calm Calm - N/A   Mostly Cloudy
6:50 AM 48.2 °F 44.6 °F 87% 29.92 in 6.2 mi Calm Calm - N/A   Mostly Cloudy
7:20 AM 48.2 °F 44.6 °F 87% 29.92 in 6.2 mi Calm Calm - N/A   Mostly Cloudy
7:50 AM 48.2 °F 44.6 °F 87% 29.95 in 5.0 mi Calm Calm - N/A   Mostly Cloudy
8:20 AM 48.2 °F 44.6 °F 87% 29.95 in 3.7 mi Calm Calm - N/A   Mostly Cloudy
8:50 AM 48.2 °F 46.4 °F 93% 29.95 in 5.0 mi West 4.6 mph - N/A   Mostly Cloudy
9:20 AM 50.0 °F 46.4 °F 87% 29.95 in 5.0 mi North 4.6 mph - N/A   Scattered Clouds
9:50 AM 53.6 °F 46.4 °F 77% 29.98 in 5.0 mi North 4.6 mph - N/A   Scattered Clouds
10:20 AM 57.2 °F 48.2 °F 72% 29.98 in 5.0 mi West 4.6 mph - N/A   Scattered Clouds
10:50 AM 60.8 °F 50.0 °F 68% 29.98 in 5.0 mi SSW 4.6 mph - N/A   Scattered Clouds
11:20 AM 60.8 °F 51.8 °F 72% 29.98 in 5.0 mi SSE 4.6 mph - N/A   Scattered Clouds
11:50 AM 62.6 °F 53.6 °F 72% 29.95 in 5.0 mi South 5.8 mph - N/A   Scattered Clouds
12:20 PM 62.6 °F 53.6 °F 72% 29.95 in 5.0 mi South 6.9 mph - N/A   Scattered Clouds
12:50 PM 62.6 °F 53.6 °F 72% 29.95 in 5.0 mi South 6.9 mph - N/A   Scattered Clouds
1:20 PM 64.4 °F 55.4 °F 73% 29.92 in 6.2 mi South 9.2 mph - N/A   Scattered Clouds
1:50 PM 64.4 °F 57.2 °F 77% 29.92 in 6.2 mi SSE 11.5 mph - N/A   Scattered Clouds
2:20 PM 64.4 °F 55.4 °F 73% 29.92 in 6.2 mi West 12.7 mph - N/A   Scattered Clouds
2:50 PM 64.4 °F 55.4 °F 73% 29.92 in 6.2 mi West 11.5 mph - N/A   Partly Cloudy
3:20 PM 62.6 °F 55.4 °F 77% 29.92 in 6.2 mi WSW 12.7 mph - N/A   Partly Cloudy
3:50 PM 62.6 °F 55.4 °F 77% 29.92 in 6.2 mi West 10.4 mph - N/A   Partly Cloudy
4:20 PM 62.6 °F 55.4 °F 77% 29.92 in 6.2 mi SSW 10.4 mph - N/A   Partly Cloudy
4:50 PM 60.8 °F 55.4 °F 82% 29.92 in 6.2 mi SSW 9.2 mph - N/A   Partly Cloudy
5:20 PM 60.8 °F 53.6 °F 77% 29.92 in 6.2 mi SSW 6.9 mph - N/A   Scattered Clouds
5:50 PM 59.0 °F 53.6 °F 82% 29.92 in 6.2 mi SSW 6.9 mph - N/A   Scattered Clouds
6:20 PM 59.0 °F 53.6 °F 82% 29.92 in 6.2 mi South 5.8 mph - N/A   Partly Cloudy
6:50 PM 55.4 °F 50.0 °F 82% 29.92 in 6.2 mi Calm Calm - N/A   Partly Cloudy
7:20 PM 53.6 °F 51.8 °F 94% 29.92 in 6.2 mi Calm Calm - N/A   Partly Cloudy
7:50 PM 53.6 °F 50.0 °F 88% 29.92 in 6.2 mi Calm Calm - N/A   Partly Cloudy
8:50 PM 50.0 °F 46.4 °F 87% 29.92 in 6.2 mi Calm Calm - N/A   Partly Cloudy
9:50 PM 50.0 °F 48.2 °F 94% 29.92 in - Calm Calm - N/A   Clear
10:50 PM 48.2 °F 46.4 °F 93% 29.89 in - Calm Calm - N/A   Clear
11:50 PM 50.0 °F 48.2 °F 94% 29.89 in - Calm Calm - N/A   Clear